QPF
0.01 0.01 0.02 0.02 0.02 0.01 0.01 0.01 0.01 0.01 0.01 0.01 0.01 0.01 0.01 0.00 0.01 0.01 0.03 0.04 0.02 0.02 0.05 0.03 0.02 0.02 0.02 0.02 0.04 0.07 0.12 0.15 0.08 0.05 0.05 0.05 0.06 0.05
0.02 0.02 0.02 0.02 0.02 0.02 0.01 0.01 0.02 0.01 0.02 0.01 0.01 0.01 0.01 0.00 0.01 0.01 0.03 0.04 0.02 0.04 0.05 0.05 0.04 0.03 0.01 0.01 0.04 0.08 0.13 0.17 0.12 0.08 0.06 0.04 0.04 0.03
0.01 0.01 0.01 0.01 0.01 0.01 0.01 0.01 0.01 0.01 0.01 0.01 0.01 0.01 0.00 0.01 0.01 0.01 0.02 0.03 0.03 0.03 0.05 0.04 0.04 0.03 0.02 0.01 0.03 0.06 0.11 0.11 0.07 0.04 0.03 0.02 0.01 0.01
0.01 0.00 0.01 0.01 0.01 0.01 0.00 0.00 0.00 0.00 0.00 0.01 0.01 0.00 0.01 0.02 0.01 0.01 0.02 0.03 0.03 0.04 0.05 0.04 0.03 0.02 0.02 0.02 0.03 0.03 0.04 0.05 0.04 0.02 0.02 0.01 0.01 0.01
0.01 0.01 0.00 0.00 0.00 0.01 0.01 0.01 0.00 0.00 0.00 0.01 0.00 0.00 0.00 0.01 0.01 0.01 0.03 0.03 0.03 0.03 0.04 0.04 0.04 0.03 0.02 0.02 0.02 0.02 0.01 0.01 0.02 0.02 0.02 0.01 0.01 0.01
0.01 0.00 0.00 0.00 0.01 0.01 0.01 0.01 0.00 0.00 0.00 0.00 0.00 0.00 0.00 0.01 0.01 0.01 0.02 0.02 0.02 0.02 0.02 0.02 0.02 0.02 0.02 0.01 0.01 0.01 0.00 0.00 0.00 0.00 0.00 0.01 0.01 0.00
0.01 0.00 0.00 0.00 0.01 0.01 0.01 0.01 0.01 0.00 0.00 0.00 0.00 0.00 0.00 0.00 0.00 0.00 0.01 0.00 0.01 0.01 0.01 0.00 0.00 0.00 0.00 0.01 0.01 0.00 0.00 0.00 0.00 0.00 0.00 0.00 0.00 0.00
0.00 0.00 0.00 0.00 0.00 0.01 0.01 0.01 0.01 0.01 0.00 0.00 0.00 0.01 0.00 0.00 0.00 0.00 0.00 0.00 0.01 0.01 0.01 0.00 0.00 0.00 0.00 0.00 0.00 0.00 0.00 0.00 0.00 0.00 0.00 0.00 0.00 0.00
0.00 0.00 0.00 0.00 0.00 0.00 0.00 0.00 0.00 0.00 0.00 0.01 0.01 0.01 0.00 0.01 0.00 0.00 0.00 0.00 0.00 0.00 0.00 0.00 0.00 0.00 0.00 0.00 0.00 0.00 0.00 0.00 0.00 0.00 0.00 0.00 0.00 0.00
0.00 0.00 0.00 0.00 0.00 0.00 0.00 0.00 0.00 0.00 0.00 0.01 0.00 0.01 0.01 0.00 0.00 0.00 0.00 0.00 0.00 0.00 0.00 0.00 0.00 0.00 0.00 0.00 0.00 0.00 0.00 0.00 0.00 0.00 0.00 0.00 0.00 0.00
0.00 0.00 0.00 0.00 0.01 0.00 0.00 0.00 0.00 0.00 0.00 0.00 0.00 0.01 0.00 0.00 0.00 0.00 0.00 0.00 0.00 0.00 0.00 0.00 0.00 0.00 0.00 0.00 0.00 0.00 0.00 0.00 0.00 0.00 0.00 0.00 0.00 0.00
0.00 0.00 0.00 0.00 0.01 0.00 0.00 0.00 0.00 0.00 0.00 0.00 0.00 0.00 0.00 0.00 0.00 0.00 0.00 0.00 0.00 0.00 0.00 0.00 0.01 0.01 0.02 0.01 0.01 0.01 0.01 0.01 0.01 0.00 0.00 0.00 0.00 0.00
0.00 0.00 0.00 0.00 0.00 0.00 0.00 0.00 0.00 0.00 0.00 0.00 0.00 0.00 0.00 0.00 0.00 0.00 0.00 0.00 0.00 0.00 0.00 0.01 0.01 0.01 0.02 0.01 0.01 0.01 0.01 0.00 0.00 0.00 0.00 0.00 0.00 0.00
0.00 0.00 0.00 0.01 0.01 0.00 0.00 0.00 0.00 0.00 0.00 0.00 0.00 0.00 0.00 0.00 0.00 0.00 0.00 0.00 0.00 0.00 0.01 0.01 0.01 0.01 0.01 0.01 0.01 0.02 0.01 0.00 0.00 0.00 0.00 0.00 0.01 0.01
0.00 0.01 0.01 0.01 0.01 0.00 0.00 0.00 0.00 0.00 0.00 0.00 0.00 0.00 0.00 0.00 0.00 0.00 0.00 0.00 0.00 0.00 0.00 0.01 0.01 0.01 0.01 0.01 0.01 0.02 0.01 0.01 0.00 0.00 0.00 0.00 0.00 0.00
0.00 0.01 0.00 0.00 0.00 0.00 0.00 0.00 0.00 0.00 0.00 0.00 0.00 0.00 0.00 0.00 0.00 0.00 0.00 0.00 0.00 0.00 0.00 0.01 0.02 0.02 0.01 0.01 0.01 0.01 0.01 0.01 0.00 0.00 0.00 0.01 0.00 0.00
0.00 0.00 0.00 0.00 0.00 0.00 0.00 0.00 0.00 0.00 0.00 0.00 0.00 0.00 0.00 0.00 0.00 0.00 0.00 0.00 0.00 0.00 0.01 0.01 0.02 0.01 0.01 0.01 0.01 0.02 0.02 0.00 0.00 0.00 0.01 0.01 0.00 0.00
0.00 0.00 0.00 0.00 0.00 0.00 0.00 0.00 0.00 0.00 0.00 0.00 0.00 0.00 0.00 0.00 0.00 0.00 0.00 0.00 0.00 0.00 0.01 0.01 0.01 0.01 0.01 0.01 0.01 0.03 0.02 0.01 0.01 0.00 0.01 0.01 0.01 0.01
0.00 0.00 0.00 0.00 0.00 0.00 0.00 0.00 0.00 0.00 0.00 0.00 0.00 0.00 0.00 0.00 0.00 0.00 0.00 0.00 0.00 0.00 0.01 0.01 0.01 0.01 0.01 0.01 0.01 0.03 0.02 0.01 0.01 0.01 0.01 0.01 0.02 0.02
0.00 0.00 0.00 0.00 0.00 0.00 0.00 0.00 0.00 0.00 0.00 0.00 0.00 0.00 0.00 0.00 0.00 0.00 0.00 0.00 0.00 0.00 0.00 0.00 0.01 0.01 0.02 0.01 0.02 0.02 0.02 0.02 0.02 0.02 0.02 0.02 0.03 0.04
0.00 0.00 0.00 0.00 0.00 0.00 0.00 0.00 0.00 0.00 0.00 0.00 0.00 0.00 0.00 0.00 0.00 0.00 0.00 0.00 0.00 0.00 0.00 0.00 0.00 0.01 0.01 0.01 0.01 0.02 0.01 0.01 0.01 0.02 0.03 0.05 0.05 0.05
0.00 0.00 0.00 0.00 0.00 0.00 0.00 0.00 0.00 0.00 0.00 0.00 0.00 0.00 0.00 0.00 0.00 0.00 0.00 0.00 0.00 0.00 0.00 0.00 0.00 0.00 0.01 0.01 0.02 0.02 0.02 0.01 0.01 0.01 0.03 0.05 0.07 0.07
0.01 0.01 0.00 0.00 0.00 0.00 0.00 0.00 0.00 0.00 0.00 0.00 0.00 0.00 0.00 0.00 0.00 0.00 0.00 0.00 0.00 0.00 0.00 0.00 0.00 0.00 0.01 0.01 0.02 0.02 0.02 0.01 0.01 0.02 0.03 0.03 0.04 0.05
MSLP
1018.18 1018.29 1018.46 1018.69 1018.94 1019.20 1019.44 1019.65 1019.80 1019.89 1019.94 1019.92 1019.87 1019.78 1019.66 1019.52 1019.35 1019.15 1018.93 1018.68 1018.39 1018.07 1017.71 1017.31 1016.89 1016.45 1016.00 1015.58 1015.21 1014.91 1014.70 1014.61 1014.64 1014.79 1015.06 1015.41 1015.83 1016.29
1018.41 1018.46 1018.57 1018.72 1018.91 1019.11 1019.31 1019.49 1019.64 1019.76 1019.84 1019.87 1019.87 1019.82 1019.74 1019.63 1019.48 1019.31 1019.11 1018.88 1018.63 1018.35 1018.05 1017.72 1017.37 1016.99 1016.61 1016.24 1015.89 1015.59 1015.37 1015.24 1015.20 1015.28 1015.45 1015.71 1016.04 1016.42
1018.72 1018.73 1018.78 1018.87 1018.99 1019.13 1019.28 1019.43 1019.57 1019.70 1019.80 1019.87 1019.91 1019.91 1019.87 1019.79 1019.67 1019.51 1019.33 1019.12 1018.89 1018.64 1018.38 1018.10 1017.80 1017.50 1017.18 1016.86 1016.56 1016.30 1016.08 1015.93 1015.86 1015.88 1015.99 1016.18 1016.43 1016.73
1019.07 1019.05 1019.06 1019.10 1019.16 1019.25 1019.35 1019.47 1019.59 1019.71 1019.83 1019.93 1020.00 1020.04 1020.04 1019.99 1019.90 1019.76 1019.59 1019.39 1019.16 1018.93 1018.68 1018.43 1018.17 1017.91 1017.65 1017.39 1017.15 1016.92 1016.74 1016.60 1016.53 1016.52 1016.59 1016.73 1016.92 1017.16
1019.39 1019.37 1019.36 1019.36 1019.39 1019.43 1019.49 1019.58 1019.68 1019.79 1019.91 1020.02 1020.12 1020.19 1020.22 1020.20 1020.13 1020.01 1019.85 1019.64 1019.42 1019.18 1018.93 1018.69 1018.45 1018.22 1017.99 1017.78 1017.58 1017.40 1017.26 1017.15 1017.10 1017.10 1017.16 1017.27 1017.43 1017.63
1019.66 1019.63 1019.61 1019.60 1019.61 1019.63 1019.66 1019.72 1019.79 1019.89 1020.00 1020.11 1020.22 1020.31 1020.37 1020.37 1020.32 1020.22 1020.06 1019.86 1019.63 1019.37 1019.12 1018.87 1018.63 1018.40 1018.19 1018.01 1017.84 1017.70 1017.60 1017.53 1017.51 1017.53 1017.60 1017.71 1017.86 1018.03
1019.84 1019.82 1019.80 1019.79 1019.79 1019.80 1019.81 1019.85 1019.90 1019.97 1020.06 1020.16 1020.27 1020.37 1020.43 1020.46 1020.43 1020.35 1020.20 1020.00 1019.77 1019.51 1019.23 1018.97 1018.71 1018.48 1018.27 1018.09 1017.94 1017.83 1017.75 1017.71 1017.72 1017.76 1017.85 1017.97 1018.12 1018.28
1019.96 1019.93 1019.92 1019.91 1019.92 1019.92 1019.93 1019.94 1019.97 1020.01 1020.07 1020.15 1020.24 1020.33 1020.40 1020.44 1020.43 1020.36 1020.24 1020.06 1019.83 1019.57 1019.29 1019.00 1018.73 1018.48 1018.25 1018.06 1017.91 1017.79 1017.73 1017.70 1017.72 1017.78 1017.87 1018.00 1018.15 1018.30
1020.05 1020.01 1020.00 1020.00 1020.01 1020.02 1020.02 1020.02 1020.02 1020.03 1020.05 1020.10 1020.15 1020.22 1020.28 1020.32 1020.33 1020.28 1020.18 1020.02 1019.81 1019.56 1019.28 1018.99 1018.70 1018.42 1018.18 1017.96 1017.79 1017.65 1017.57 1017.53 1017.54 1017.59 1017.69 1017.81 1017.95 1018.09
1020.18 1020.12 1020.10 1020.11 1020.12 1020.13 1020.13 1020.11 1020.08 1020.06 1020.04 1020.03 1020.05 1020.08 1020.12 1020.15 1020.16 1020.13 1020.06 1019.93 1019.74 1019.51 1019.24 1018.95 1018.65 1018.35 1018.08 1017.83 1017.62 1017.45 1017.34 1017.27 1017.24 1017.27 1017.33 1017.43 1017.54 1017.66
1020.41 1020.33 1020.31 1020.31 1020.33 1020.34 1020.33 1020.30 1020.24 1020.17 1020.10 1020.05 1020.01 1020.00 1020.00 1020.01 1020.01 1019.99 1019.93 1019.82 1019.66 1019.45 1019.20 1018.91 1018.61 1018.30 1018.00 1017.71 1017.46 1017.25 1017.08 1016.96 1016.89 1016.87 1016.89 1016.94 1017.02 1017.11
1020.80 1020.70 1020.67 1020.68 1020.70 1020.71 1020.69 1020.64 1020.56 1020.45 1020.33 1020.22 1020.12 1020.06 1020.01 1019.98 1019.96 1019.92 1019.87 1019.77 1019.62 1019.43 1019.19 1018.91 1018.61 1018.28 1017.96 1017.64 1017.35 1017.09 1016.87 1016.69 1016.57 1016.48 1016.45 1016.44 1016.47 1016.51
1021.38 1021.28 1021.25 1021.26 1021.28 1021.29 1021.27 1021.20 1021.09 1020.95 1020.78 1020.62 1020.46 1020.33 1020.23 1020.15 1020.09 1020.03 1019.95 1019.84 1019.70 1019.50 1019.27 1018.99 1018.67 1018.34 1017.99 1017.65 1017.32 1017.01 1016.74 1016.51 1016.32 1016.18 1016.08 1016.01 1015.98 1015.97
1022.15 1022.07 1022.04 1022.06 1022.09 1022.11 1022.08 1022.00 1021.87 1021.69 1021.49 1021.27 1021.07 1020.88 1020.72 1020.58 1020.47 1020.36 1020.24 1020.10 1019.93 1019.72 1019.47 1019.18 1018.85 1018.50 1018.13 1017.76 1017.40 1017.05 1016.73 1016.45 1016.20 1016.00 1015.83 1015.71 1015.62 1015.55
1023.11 1023.05 1023.04 1023.07 1023.11 1023.12 1023.09 1023.00 1022.86 1022.66 1022.43 1022.18 1021.93 1021.69 1021.47 1021.28 1021.11 1020.94 1020.77 1020.58 1020.36 1020.11 1019.83 1019.51 1019.16 1018.79 1018.39 1018.00 1017.61 1017.23 1016.87 1016.53 1016.24 1015.97 1015.75 1015.56 1015.40 1015.27
1024.20 1024.17 1024.19 1024.23 1024.27 1024.28 1024.24 1024.15 1023.99 1023.78 1023.54 1023.27 1022.99 1022.72 1022.46 1022.21 1021.98 1021.75 1021.51 1021.27 1020.99 1020.69 1020.36 1020.00 1019.62 1019.21 1018.79 1018.37 1017.95 1017.54 1017.14 1016.77 1016.42 1016.10 1015.82 1015.56 1015.34 1015.14
1025.38 1025.38 1025.41 1025.46 1025.49 1025.49 1025.45 1025.34 1025.18 1024.96 1024.71 1024.43 1024.15 1023.85 1023.56 1023.28 1023.00 1022.72 1022.43 1022.11 1021.78 1021.42 1021.04 1020.63 1020.20 1019.76 1019.31 1018.86 1018.41 1017.97 1017.53 1017.12 1016.72 1016.35 1016.00 1015.68 1015.38 1015.11
1026.57 1026.59 1026.63 1026.67 1026.69 1026.66 1026.59 1026.47 1026.30 1026.08 1025.83 1025.55 1025.27 1024.97 1024.67 1024.36 1024.05 1023.73 1023.38 1023.02 1022.63 1022.21 1021.78 1021.32 1020.85 1020.38 1019.89 1019.41 1018.93 1018.46 1017.99 1017.53 1017.08 1016.65 1016.24 1015.85 1015.47 1015.12
1027.72 1027.75 1027.77 1027.78 1027.76 1027.70 1027.59 1027.44 1027.25 1027.02 1026.77 1026.50 1026.22 1025.93 1025.63 1025.31 1024.98 1024.63 1024.25 1023.84 1023.41 1022.95 1022.47 1021.97 1021.46 1020.95 1020.44 1019.93 1019.43 1018.92 1018.41 1017.91 1017.42 1016.93 1016.46 1015.99 1015.55 1015.12
1028.77 1028.77 1028.76 1028.72 1028.64 1028.53 1028.37 1028.17 1027.95 1027.70 1027.44 1027.17 1026.90 1026.61 1026.32 1026.00 1025.66 1025.29 1024.89 1024.45 1023.99 1023.49 1022.98 1022.45 1021.92 1021.38 1020.85 1020.31 1019.78 1019.25 1018.72 1018.18 1017.64 1017.10 1016.57 1016.05 1015.53 1015.03
1029.66 1029.62 1029.56 1029.45 1029.30 1029.11 1028.88 1028.63 1028.36 1028.08 1027.80 1027.52 1027.24 1026.96 1026.66 1026.35 1026.00 1025.62 1025.20 1024.74 1024.25 1023.73 1023.19 1022.65 1022.10 1021.55 1021.00 1020.45 1019.91 1019.35 1018.80 1018.23 1017.67 1017.09 1016.52 1015.95 1015.38 1014.84
1030.35 1030.26 1030.12 1029.93 1029.70 1029.42 1029.12 1028.80 1028.48 1028.16 1027.85 1027.54 1027.25 1026.95 1026.64 1026.31 1025.95 1025.55 1025.11 1024.64 1024.13 1023.60 1023.05 1022.49 1021.93 1021.37 1020.82 1020.27 1019.72 1019.16 1018.59 1018.02 1017.43 1016.84 1016.25 1015.65 1015.07 1014.50
1030.81 1030.65 1030.43 1030.16 1029.85 1029.49 1029.11 1028.72 1028.34 1027.97 1027.61 1027.27 1026.95 1026.62 1026.28 1025.93 1025.54 1025.11 1024.65 1024.16 1023.63 1023.08 1022.52 1021.95 1021.39 1020.83 1020.28 1019.74 1019.19 1018.64 1018.08 1017.51 1016.93 1016.34 1015.75 1015.16 1014.58 1014.02
Thickness
5688 5687 5686 5685 5685 5683 5681 5678 5671 5664 5663 5665 5667 5669 5670 5670 5670 5670 5670 5669 5670 5670 5672 5675 5676 5676 5675 5675 5676 5677 5678 5680 5682 5683 5683 5684 5684 5684
5685 5684 5683 5682 5681 5680 5678 5676 5673 5668 5662 5662 5663 5665 5666 5666 5665 5665 5665 5664 5664 5664 5666 5667 5668 5667 5667 5668 5668 5669 5670 5671 5672 5673 5674 5675 5675 5676
5681 5680 5678 5678 5676 5675 5674 5672 5670 5667 5661 5659 5660 5661 5661 5661 5660 5660 5659 5659 5658 5658 5659 5659 5659 5659 5659 5660 5660 5661 5661 5662 5663 5664 5665 5666 5666 5667
5677 5676 5674 5674 5672 5671 5670 5668 5666 5664 5661 5655 5655 5655 5656 5655 5655 5654 5654 5653 5653 5652 5652 5652 5651 5652 5652 5652 5652 5653 5653 5654 5655 5655 5655 5656 5657 5657
5673 5672 5670 5669 5667 5666 5665 5663 5662 5661 5658 5654 5650 5650 5650 5650 5649 5648 5648 5647 5647 5646 5646 5645 5645 5645 5645 5645 5645 5645 5645 5646 5646 5646 5646 5646 5647 5647
5670 5668 5667 5665 5664 5662 5661 5658 5657 5654 5652 5649 5646 5644 5643 5643 5642 5640 5639 5640 5640 5640 5640 5639 5639 5638 5638 5638 5638 5637 5637 5637 5637 5637 5637 5637 5637 5638
5665 5664 5663 5663 5661 5660 5658 5654 5652 5649 5646 5643 5640 5638 5636 5635 5634 5633 5632 5632 5633 5633 5633 5633 5632 5631 5631 5630 5629 5629 5628 5628 5628 5628 5628 5628 5628 5628
5660 5659 5658 5657 5657 5655 5654 5652 5650 5645 5641 5638 5635 5633 5631 5631 5630 5629 5626 5625 5624 5626 5624 5624 5624 5623 5622 5622 5621 5620 5619 5618 5618 5618 5618 5618 5618 5618
5655 5654 5653 5652 5650 5649 5648 5646 5644 5643 5641 5637 5632 5630 5628 5627 5625 5623 5620 5618 5616 5617 5616 5615 5615 5614 5614 5613 5612 5610 5609 5608 5608 5608 5608 5608 5608 5608
5650 5649 5647 5645 5645 5643 5641 5639 5637 5636 5635 5633 5630 5627 5626 5624 5621 5618 5615 5612 5610 5608 5607 5604 5605 5604 5605 5604 5602 5601 5600 5598 5598 5598 5598 5597 5597 5597
5644 5643 5642 5640 5640 5638 5635 5631 5629 5628 5628 5626 5624 5621 5619 5617 5614 5611 5606 5603 5600 5599 5597 5594 5593 5593 5594 5593 5592 5590 5589 5588 5587 5587 5587 5586 5586 5586
5637 5636 5636 5635 5634 5631 5628 5625 5622 5620 5619 5618 5615 5613 5611 5609 5606 5603 5598 5594 5590 5588 5588 5584 5582 5580 5581 5583 5581 5580 5579 5578 5577 5576 5576 5575 5574 5573
5630 5629 5628 5628 5627 5624 5622 5619 5617 5615 5612 5609 5606 5604 5602 5599 5597 5594 5591 5586 5581 5578 5578 5575 5572 5570 5567 5568 5570 5570 5569 5568 5567 5566 5564 5563 5562 5561
5625 5623 5622 5621 5619 5617 5615 5613 5610 5607 5603 5599 5596 5593 5591 5589 5587 5585 5582 5579 5575 5572 5570 5567 5563 5560 5557 5556 5557 5558 5558 5557 5555 5554 5553 5552 5551 5549
5620 5618 5616 5614 5612 5609 5606 5604 5601 5597 5593 5589 5585 5583 5581 5579 5577 5575 5572 5570 5567 5564 5561 5559 5556 5553 5549 5546 5546 5546 5546 5546 5544 5542 5541 5540 5539 5538
5613 5610 5608 5605 5602 5599 5596 5593 5590 5587 5583 5580 5577 5574 5572 5569 5566 5564 5561 5559 5556 5554 5552 5549 5547 5544 5540 5538 5535 5534 5533 5531 5531 5530 5528 5528 5527 5526
5604 5600 5597 5594 5591 5588 5585 5582 5579 5577 5573 5570 5567 5564 5562 5559 5556 5553 5550 5547 5543 5541 5540 5540 5537 5535 5532 5528 5526 5524 5522 5520 5519 5517 5516 5515 5516 5514
5597 5591 5587 5583 5580 5577 5574 5571 5569 5566 5564 5561 5558 5555 5552 5548 5545 5542 5539 5535 5532 5530 5528 5527 5525 5524 5522 5520 5516 5513 5510 5509 5508 5506 5504 5503 5504 5504
5588 5583 5579 5576 5572 5569 5566 5562 5559 5557 5554 5551 5548 5544 5541 5538 5534 5531 5528 5525 5522 5520 5517 5515 5512 5510 5507 5507 5507 5503 5499 5498 5496 5495 5493 5492 5492 5494
5580 5577 5573 5569 5565 5561 5558 5555 5551 5548 5545 5541 5537 5534 5531 5527 5524 5521 5517 5514 5512 5510 5507 5504 5501 5498 5495 5494 5494 5494 5490 5487 5485 5484 5483 5482 5482 5482
5573 5569 5566 5562 5558 5554 5551 5547 5543 5539 5536 5532 5528 5525 5521 5518 5514 5511 5508 5506 5503 5500 5497 5495 5494 5491 5488 5485 5482 5483 5481 5477 5475 5473 5472 5470 5470 5470
5567 5563 5559 5555 5551 5547 5543 5539 5535 5531 5527 5524 5520 5517 5513 5509 5506 5503 5500 5497 5494 5491 5489 5487 5485 5482 5478 5474 5472 5471 5470 5469 5466 5463 5460 5458 5455 5456
5559 5555 5551 5547 5543 5539 5535 5531 5527 5523 5519 5516 5512 5508 5505 5501 5498 5494 5491 5489 5486 5483 5480 5477 5475 5472 5468 5465 5462 5460 5459 5457 5455 5453 5452 5449 5446 5446